Time,TemperatureF,DewpointF,PressureIn,WindDirection,WindDirectionDegrees,WindSpeedMPH,WindSpeedGustMPH,Humidity,HourlyPrecipIn,Conditions,Clouds,dailyrainin,SoftwareType,DateUTC
2013-01-28 00:09:00,42.4,31.0,30.45,SE,135,2.0,3.0,65,0.00,,,0.00,weatherlink.com 1.10,2013-01-28 05:09:00,
2013-01-28 00:24:00,42.1,31.0,30.43,East,96,3.0,4.0,65,0.00,,,0.00,weatherlink.com 1.10,2013-01-28 05:24:00,
2013-01-28 00:39:00,41.7,31.0,30.42,North,349,2.0,2.0,66,0.00,,,0.00,weatherlink.com 1.10,2013-01-28 05:39:00,
2013-01-28 00:54:00,41.8,31.0,30.43,SSE,158,0.0,2.0,65,0.00,,,0.00,weatherlink.com 1.10,2013-01-28 05:54:00,
2013-01-28 01:09:00,42.0,31.0,30.44,SE,145,1.0,5.0,65,0.00,,,0.00,weatherlink.com 1.10,2013-01-28 06:09:00,
2013-01-28 01:24:00,42.2,31.0,30.44,South,187,0.0,3.0,64,0.00,,,0.00,weatherlink.com 1.10,2013-01-28 06:24:00,
2013-01-28 01:39:00,42.3,31.0,30.45,SW,228,0.0,2.0,65,0.00,,,0.00,weatherlink.com 1.10,2013-01-28 06:39:00,
2013-01-28 01:54:00,42.3,31.0,30.45,ESE,113,1.0,1.0,65,0.00,,,0.00,weatherlink.com 1.10,2013-01-28 06:54:00,
2013-01-28 02:09:00,42.2,31.0,30.44,South,187,0.0,1.0,66,0.00,,,0.00,weatherlink.com 1.10,2013-01-28 07:09:00,
2013-01-28 02:24:00,42.1,31.0,30.44,South,190,1.0,3.0,65,0.00,,,0.00,weatherlink.com 1.10,2013-01-28 07:24:00,
2013-01-28 02:39:00,41.9,31.0,30.44,SSE,148,0.0,3.0,65,0.00,,,0.00,weatherlink.com 1.10,2013-01-28 07:39:00,
2013-01-28 02:54:00,41.5,31.0,30.44,SE,144,0.0,1.0,67,0.00,,,0.00,weatherlink.com 1.10,2013-01-28 07:54:00,
2013-01-28 03:09:00,41.4,30.0,30.43,SE,132,1.0,3.0,65,0.00,,,0.00,weatherlink.com 1.10,2013-01-28 08:09:00,
2013-01-28 03:24:00,41.7,31.0,30.43,SE,146,1.0,3.0,65,0.00,,,0.00,weatherlink.com 1.10,2013-01-28 08:24:00,
2013-01-28 03:39:00,42.0,31.0,30.42,SE,130,2.0,3.0,65,0.00,,,0.00,weatherlink.com 1.10,2013-01-28 08:39:00,
2013-01-28 03:55:00,42.4,31.0,30.42,SW,224,2.0,3.0,65,0.00,,,0.00,weatherlink.com 1.10,2013-01-28 08:55:00,
2013-01-28 04:10:00,42.5,31.0,30.43,ESE,105,0.0,2.0,65,0.00,,,0.00,weatherlink.com 1.10,2013-01-28 09:10:00,
2013-01-28 04:25:00,42.7,32.0,30.42,East,85,0.0,1.0,66,0.00,,,0.00,weatherlink.com 1.10,2013-01-28 09:25:00,
2013-01-28 04:40:00,42.9,32.0,30.43,East,86,0.0,1.0,66,0.00,,,0.00,weatherlink.com 1.10,2013-01-28 09:40:00,
2013-01-28 04:55:00,43.0,33.0,30.43,East,86,0.0,1.0,68,0.00,,,0.00,weatherlink.com 1.10,2013-01-28 09:55:00,
2013-01-28 05:10:00,42.8,33.0,30.43,East,86,0.0,0.0,68,0.00,,,0.00,weatherlink.com 1.10,2013-01-28 10:10:00,
2013-01-28 05:25:00,43.0,33.0,30.42,East,86,0.0,1.0,69,0.00,,,0.00,weatherlink.com 1.10,2013-01-28 10:25:00,
2013-01-28 05:40:00,43.1,34.0,30.42,NW,308,0.0,1.0,70,0.00,,,0.00,weatherlink.com 1.10,2013-01-28 10:40:00,
2013-01-28 05:55:00,43.4,33.0,30.43,NW,308,0.0,1.0,68,0.00,,,0.00,weatherlink.com 1.10,2013-01-28 10:55:00,
2013-01-28 06:10:00,43.5,34.0,30.43,NW,308,0.0,0.0,70,0.00,,,0.00,weatherlink.com 1.10,2013-01-28 11:10:00,
2013-01-28 06:25:00,43.6,34.0,30.43,SW,221,0.0,1.0,68,0.00,,,0.00,weatherlink.com 1.10,2013-01-28 11:25:00,
2013-01-28 06:40:00,43.5,34.0,30.43,SW,221,0.0,0.0,69,0.00,,,0.00,weatherlink.com 1.10,2013-01-28 11:40:00,
2013-01-28 06:55:00,43.5,35.0,30.43,SW,221,0.0,1.0,73,0.00,,,0.00,weatherlink.com 1.10,2013-01-28 11:55:00,
2013-01-28 07:10:00,43.5,35.0,30.43,SW,221,0.0,1.0,72,0.00,,,0.00,weatherlink.com 1.10,2013-01-28 12:10:00,
2013-01-28 07:25:00,43.5,36.0,30.44,SW,221,0.0,1.0,74,0.00,,,0.00,weatherlink.com 1.10,2013-01-28 12:25:00,
2013-01-28 07:40:00,43.4,35.0,30.43,SW,221,1.0,1.0,72,0.00,,,0.00,weatherlink.com 1.10,2013-01-28 12:40:00,
2013-01-28 07:55:00,43.4,36.0,30.44,SW,221,0.0,1.0,76,0.00,,,0.00,weatherlink.com 1.10,2013-01-28 12:55:00,
2013-01-28 08:10:00,43.5,36.0,30.44,SW,221,0.0,0.0,75,0.00,,,0.00,weatherlink.com 1.10,2013-01-28 13:10:00,
2013-01-28 08:25:00,43.6,37.0,30.44,SW,221,0.0,1.0,76,0.00,,,0.00,weatherlink.com 1.10,2013-01-28 13:25:00,
2013-01-28 08:40:00,44.2,38.0,30.43,South,186,1.0,1.0,78,0.00,,,0.00,weatherlink.com 1.10,2013-01-28 13:40:00,
2013-01-28 08:55:00,44.8,38.0,30.43,SE,143,1.0,1.0,78,0.00,,,0.00,weatherlink.com 1.10,2013-01-28 13:55:00,
2013-01-28 09:10:00,45.3,39.0,30.43,SE,141,1.0,1.0,79,0.00,,,0.00,weatherlink.com 1.10,2013-01-28 14:10:00,
2013-01-28 09:25:00,45.7,40.0,30.43,SSE,158,0.0,1.0,79,0.00,,,0.00,weatherlink.com 1.10,2013-01-28 14:25:00,
2013-01-28 09:40:00,46.1,41.0,30.42,SE,124,0.0,1.0,81,0.00,,,0.00,weatherlink.com 1.10,2013-01-28 14:40:00,
2013-01-28 09:55:00,46.9,42.0,30.42,SE,141,1.0,2.0,82,0.00,,,0.00,weatherlink.com 1.10,2013-01-28 14:55:00,
2013-01-28 10:10:00,48.0,42.0,30.42,SSW,202,0.0,2.0,81,0.00,,,0.00,weatherlink.com 1.10,2013-01-28 15:10:00,
2013-01-28 10:25:00,49.2,43.0,30.42,SE,129,0.0,1.0,79,0.00,,,0.00,weatherlink.com 1.10,2013-01-28 15:25:00,
2013-01-28 10:40:00,49.3,42.0,30.42,North,4,1.0,2.0,76,0.00,,,0.00,weatherlink.com 1.10,2013-01-28 15:40:00,
2013-01-28 10:55:00,49.2,42.0,30.41,SW,226,0.0,1.0,75,0.00,,,0.00,weatherlink.com 1.10,2013-01-28 15:55:00,
2013-01-28 11:10:00,50.1,43.0,30.41,NNW,333,1.0,1.0,76,0.00,,,0.00,weatherlink.com 1.10,2013-01-28 16:10:00,
2013-01-28 11:25:00,51.1,43.0,30.41,North,5,1.0,4.0,75,0.00,,,0.00,weatherlink.com 1.10,2013-01-28 16:25:00,
2013-01-28 11:40:00,51.5,45.0,30.40,NE,43,3.0,4.0,78,0.00,,,0.00,weatherlink.com 1.10,2013-01-28 16:40:00,
2013-01-28 11:55:00,51.4,45.0,30.40,NE,46,2.0,4.0,79,0.00,,,0.00,weatherlink.com 1.10,2013-01-28 16:55:00,
2013-01-28 12:10:00,51.4,46.0,30.39,NNE,30,0.0,3.0,81,0.00,,,0.00,weatherlink.com 1.10,2013-01-28 17:10:00,
2013-01-28 12:25:00,51.7,46.0,30.38,North,349,1.0,3.0,82,0.00,,,0.00,weatherlink.com 1.10,2013-01-28 17:25:00,
2013-01-28 12:40:00,51.8,47.0,30.37,NE,49,1.0,2.0,82,0.00,,,0.00,weatherlink.com 1.10,2013-01-28 17:40:00,
2013-01-28 12:55:00,52.9,48.0,30.36,ENE,61,0.0,1.0,83,0.00,,,0.00,weatherlink.com 1.10,2013-01-28 17:55:00,
2013-01-28 13:11:00,54.6,49.0,30.34,NE,41,2.0,4.0,82,0.00,,,0.00,weatherlink.com 1.10,2013-01-28 18:11:00,
2013-01-28 13:26:00,56.7,51.0,30.34,ENE,67,0.0,4.0,80,0.00,,,0.00,weatherlink.com 1.10,2013-01-28 18:26:00,
2013-01-28 13:41:00,57.8,52.0,30.32,ESE,120,3.0,5.0,80,0.00,,,0.00,weatherlink.com 1.10,2013-01-28 18:41:00,
2013-01-28 13:56:00,59.0,53.0,30.32,WSW,257,1.0,7.0,81,0.00,,,0.00,weatherlink.com 1.10,2013-01-28 18:56:00,
2013-01-28 14:11:00,59.3,52.0,30.32,SE,139,3.0,4.0,78,0.00,,,0.00,weatherlink.com 1.10,2013-01-28 19:11:00,
2013-01-28 14:26:00,57.9,52.0,30.32,ENE,73,0.0,3.0,80,0.00,,,0.00,weatherlink.com 1.10,2013-01-28 19:26:00,
2013-01-28 14:41:00,57.2,52.0,30.31,SE,141,4.0,4.0,82,0.00,,,0.00,weatherlink.com 1.10,2013-01-28 19:41:00,
2013-01-28 14:56:00,56.4,52.0,30.31,SSW,197,2.0,4.0,84,0.00,,,0.00,weatherlink.com 1.10,2013-01-28 19:56:00,
2013-01-28 15:11:00,55.7,51.0,30.31,SSE,165,0.0,2.0,84,0.00,,,0.00,weatherlink.com 1.10,2013-01-28 20:11:00,
2013-01-28 15:26:00,55.1,51.0,30.31,ENE,61,2.0,5.0,85,0.00,,,0.00,weatherlink.com 1.10,2013-01-28 20:26:00,
2013-01-28 15:41:00,55.3,51.0,30.31,SSW,195,1.0,2.0,85,0.00,,,0.00,weatherlink.com 1.10,2013-01-28 20:41:00,
2013-01-28 15:56:00,55.1,50.0,30.31,NE,43,0.0,4.0,84,0.00,,,0.00,weatherlink.com 1.10,2013-01-28 20:56:00,
2013-01-28 16:11:00,54.8,50.0,30.31,NE,44,0.0,6.0,85,0.00,,,0.00,weatherlink.com 1.10,2013-01-28 21:11:00,
2013-01-28 16:26:00,54.0,50.0,30.31,ESE,116,0.0,3.0,86,0.00,,,0.00,weatherlink.com 1.10,2013-01-28 21:26:00,
2013-01-28 16:41:00,53.3,49.0,30.31,WSW,248,0.0,2.0,86,0.00,,,0.00,weatherlink.com 1.10,2013-01-28 21:41:00,
2013-01-28 16:56:00,53.0,49.0,30.31,SE,143,0.0,4.0,87,0.00,,,0.00,weatherlink.com 1.10,2013-01-28 21:56:00,
2013-01-28 17:11:00,52.8,49.0,30.31,West,264,0.0,5.0,87,0.00,,,0.00,weatherlink.com 1.10,2013-01-28 22:11:00,
2013-01-28 17:26:00,52.6,49.0,30.32,SE,136,1.0,2.0,87,0.00,,,0.00,weatherlink.com 1.10,2013-01-28 22:26:00,
2013-01-28 17:41:00,52.3,49.0,30.31,SSE,150,2.0,4.0,87,0.00,,,0.00,weatherlink.com 1.10,2013-01-28 22:41:00,
2013-01-28 17:56:00,51.9,48.0,30.31,South,188,1.0,5.0,87,0.00,,,0.00,weatherlink.com 1.10,2013-01-28 22:56:00,
2013-01-28 18:11:00,51.2,48.0,30.32,SE,138,0.0,2.0,87,0.00,,,0.00,weatherlink.com 1.10,2013-01-28 23:11:00,
2013-01-28 18:26:00,50.4,47.0,30.32,SE,145,0.0,1.0,88,0.00,,,0.00,weatherlink.com 1.10,2013-01-28 23:26:00,
2013-01-28 18:41:00,49.6,47.0,30.31,SSW,204,0.0,1.0,89,0.01,,,0.01,weatherlink.com 1.10,2013-01-28 23:41:00,
2013-01-28 18:56:00,49.0,46.0,30.32,SSW,205,0.0,0.0,90,0.01,,,0.01,weatherlink.com 1.10,2013-01-28 23:56:00,
2013-01-28 19:11:00,48.2,46.0,30.32,SSW,205,1.0,1.0,91,0.01,,,0.01,weatherlink.com 1.10,2013-01-29 00:11:00,
2013-01-28 19:26:00,47.8,46.0,30.32,SW,217,0.0,1.0,93,0.01,,,0.01,weatherlink.com 1.10,2013-01-29 00:26:00,
2013-01-28 19:41:00,47.0,45.0,30.32,NNE,16,0.0,0.0,92,0.00,,,0.01,weatherlink.com 1.10,2013-01-29 00:41:00,
2013-01-28 19:56:00,46.3,44.0,30.32,NNE,18,0.0,0.0,92,0.00,,,0.01,weatherlink.com 1.10,2013-01-29 00:56:00,
2013-01-28 20:12:00,45.9,44.0,30.32,NNE,17,0.0,1.0,94,0.00,,,0.01,weatherlink.com 1.10,2013-01-29 01:12:00,
2013-01-28 20:26:00,45.5,44.0,30.32,NNE,16,1.0,1.0,93,0.00,,,0.01,weatherlink.com 1.10,2013-01-29 01:26:00,
2013-01-28 20:41:00,45.1,43.0,30.32,North,6,0.0,1.0,93,0.00,,,0.01,weatherlink.com 1.10,2013-01-29 01:41:00,
2013-01-28 20:56:00,44.8,43.0,30.33,North,6,1.0,1.0,94,0.00,,,0.01,weatherlink.com 1.10,2013-01-29 01:56:00,
2013-01-28 21:11:00,44.6,43.0,30.33,North,6,1.0,1.0,94,0.00,,,0.01,weatherlink.com 1.10,2013-01-29 02:11:00,
2013-01-28 21:26:00,44.3,43.0,30.33,North,6,0.0,1.0,94,0.00,,,0.01,weatherlink.com 1.10,2013-01-29 02:26:00,
2013-01-28 21:41:00,43.9,42.0,30.32,North,6,0.0,1.0,94,0.00,,,0.01,weatherlink.com 1.10,2013-01-29 02:41:00,
2013-01-28 21:56:00,43.8,43.0,30.32,North,6,0.0,1.0,95,0.00,,,0.01,weatherlink.com 1.10,2013-01-29 02:56:00,
2013-01-28 22:11:00,43.4,42.0,30.32,North,6,0.0,1.0,94,0.00,,,0.01,weatherlink.com 1.10,2013-01-29 03:11:00,
2013-01-28 22:26:00,42.8,41.0,30.31,North,5,0.0,1.0,94,0.00,,,0.01,weatherlink.com 1.10,2013-01-29 03:26:00,
2013-01-28 22:41:00,42.6,41.0,30.31,North,4,0.0,1.0,95,0.00,,,0.01,weatherlink.com 1.10,2013-01-29 03:41:00,
2013-01-28 22:56:00,42.5,41.0,30.31,North,4,0.0,1.0,95,0.00,,,0.01,weatherlink.com 1.10,2013-01-29 03:56:00,
2013-01-28 23:11:00,41.9,41.0,30.31,North,5,0.0,1.0,95,0.00,,,0.01,weatherlink.com 1.10,2013-01-29 04:11:00,
2013-01-28 23:26:00,41.4,40.0,30.32,North,4,1.0,1.0,95,0.00,,,0.01,weatherlink.com 1.10,2013-01-29 04:26:00,
2013-01-28 23:41:00,41.4,40.0,30.32,North,5,0.0,1.0,95,0.00,,,0.01,weatherlink.com 1.10,2013-01-29 04:41:00,
2013-01-28 23:56:00,41.3,40.0,30.32,North,354,0.0,1.0,95,0.00,,,0.01,weatherlink.com 1.10,2013-01-29 04:56:00,